Regional Weather Roundup
Issued by NWS

Home | Current Version | Previous Version | Text Only | Print | Product List | Glossary On
Versions: 1 2 3 4 5 6 7 8 9 10 11 12 13 14 15 16 17 18 19 20 21 22 23 24 25 26 27
000
ASUS44 KLIX 150613
RWRLA
LOUISIANA WEATHER ROUNDUP
NATIONAL WEATHER SERVICE NEW ORLEANS LA
1200 AM CST FRI DEC 15 2017

NOTE: "FAIR" INDICATES FEW OR NO CLOUDS BELOW 12,000 FEET WITH NO
      SIGNIFICANT WEATHER AND/OR OBSTRUCTIONS TO VISIBILITY.
      SKY/WX - SKY CONDITION AND SIGNIFICANT WEATHER.
      TMP - AIR TEMPERATURE.    DP   - DEWPOINT TEMPERATURE.
      RH  - RELATIVE HUMIDITY.  PRES - PRESSURE.
      HX  - HEAT INDEX.         WCI  - WIND CHILL INDEX.

*  THESE STATIONS ARE NOT NWS OR FAA STATIONS AND ARE NOT UNDER
   NWS QUALITY CONTROL.

LAZ040-048-061>063-065-066-069-150700-
SOUTHEAST LOUISIANA

CITY           SKY/WX    TMP DP  RH WIND       PRES   REMARKS
N.O. INTL ARPT CLOUDY    54  51  90 N5        30.05R
6HR MIN TEMP:  52; 6HR MAX TEMP:  58;

N.O. LAKEFRONT CLOUDY    56  53  90 NW5       30.06R
6HR MIN TEMP:  54; 6HR MAX TEMP:  58;

N.O. DOWNTOWN* CLOUDY    57  49  74 CALM      30.06R
6HR MIN TEMP:  57; 6HR MAX TEMP:  60;

RESERVE*       CLOUDY    54  47  77 N3        30.06R
6HR MIN TEMP:  51; 6HR MAX TEMP:  55;

SLIDELL        PTCLDY    47  44  90 CALM      30.05R
6HR MIN TEMP:  46; 6HR MAX TEMP:  53;

BATON ROUGE    CLOUDY    50  43  77 N5        30.07R
6HR MIN TEMP:  45; 6HR MAX TEMP:  55;

BOOTHVILLE     CLOUDY    58  53  84 S3        30.04S
6HR MIN TEMP:  56; 6HR MAX TEMP:  58;

BELLE CHASSE   CLOUDY    53  52  96 NW5       30.04R
6HR MIN TEMP:  49; 6HR MAX TEMP:  55;

BOGALUSA*      FAIR      44  42  91 MISG      30.06R
6HR MIN TEMP:  43; 6HR MAX TEMP:  51;

GALLIANO*      CLOUDY    54  49  83 CALM      30.03F
6HR MIN TEMP:  50; 6HR MAX TEMP:  54;

NEW ROADS*     FAIR      47  41  78 CALM      30.08S
6HR MIN TEMP:  47; 6HR MAX TEMP:  53;

GONZALES*      CLOUDY    53  46  79 N5        30.05S
6HR MIN TEMP:  49; 6HR MAX TEMP:  55;

HAMMOND*       PTCLDY    46  45  93 CALM      30.06R
HOUMA*         CLOUDY    54  51  90 CALM      30.04R
6HR MIN TEMP:  51; 6HR MAX TEMP:  54;

PORT FOURCHON* CLOUDY    64  54  68 CALM      30.04F

$$

LAZ041-044-053-054-150700-
SOUTHWEST LOUISIANA

CITY           SKY/WX    TMP DP  RH WIND       PRES   REMARKS
LAKE CHARLES   CLOUDY    53  44  71 N8        30.08S
6HR MIN TEMP:  52; 6HR MAX TEMP:  57;

LAFAYETTE      CLOUDY    52  44  74 N8        30.07S
6HR MIN TEMP:  51; 6HR MAX TEMP:  57;

PATTERSON      CLOUDY    53  51  93 CALM      30.06S
6HR MIN TEMP:  52; 6HR MAX TEMP:  56;

SALT POINT       N/A     54  51  90 N3        30.04S
6HR MIN TEMP:  53; 6HR MAX TEMP:  55;

NEW IBERIA     CLOUDY    52  47  83 N10       30.06S
6HR MIN TEMP:  49; 6HR MAX TEMP:  55;

CHENAULT AIRPK CLOUDY    50  44  78 N6        30.09R
6HR MIN TEMP:  50; 6HR MAX TEMP:  59;


$$

LAZ027-028-150700-
CENTRAL LOUISIANA

CITY           SKY/WX    TMP DP  RH WIND       PRES   REMARKS
FORT POLK      MOCLDY    47  41  80 N3        30.09S
6HR MIN TEMP:  44; 6HR MAX TEMP:  49;

ALEXANDRIA INT PTCLDY    44  38  79 N5        30.09S
6HR MIN TEMP:  41; 6HR MAX TEMP:  49;

ALEXANDRIA     CLOUDY    41  40  96 CALM      30.10R
6HR MIN TEMP:  39; 6HR MAX TEMP:  47;


$$

LAZ001-002-150700-
NORTHWEST LOUISIANA

CITY           SKY/WX    TMP DP  RH WIND       PRES   REMARKS
SHREVEPORT     PTCLDY    46  31  55 N10       30.15R
6HR MIN TEMP:  45; 6HR MAX TEMP:  54;

BARKSDALE AFB  CLEAR     42  29  60 N7        30.15R
6HR MIN TEMP:  42; 6HR MAX TEMP:  52;

DTN SHREVEPORT CLEAR     45  30  55 N9        30.16R
6HR MIN TEMP:  45; 6HR MAX TEMP:  51;


$$

LAZ014-016-150700-
NORTHEAST LOUISIANA

CITY           SKY/WX    TMP DP  RH WIND       PRES   REMARKS
MONROE         PTCLDY    39  33  79 N7        30.15R WCI  34
6HR MIN TEMP:  38; 6HR MAX TEMP:  50;

TALLULAH       PTCLDY    43  34  70 N8        30.12R
6HR MIN TEMP:  42; 6HR MAX TEMP:  49;


$$





USA.gov is the U.S. government's official web portal to all federal, state and local government web resources and services.